Location: Bartlow
(52.0833°N, 0.3167°E)
Time: 11:50:30
(UTC+00:00)

Cosmos 2082 Rocket - Pass Details

Date: 26 September 2023
Orbit: 834 x 852 km, 71.0° (Epoch: 28 November)

Event Time Altitude Azimuth Distance (km) Brightness Sun altitude
Exits shadow 02:43:24 84° 290° (WNW) 865 2.1 -27.5°
Maximum altitude 02:43:27 84° 301° (WNW) 865 2.1 -27.5°
Drops below altitude 10° 02:49:12 10° 30° (NNE) 2,492 5.5 -26.9°
Sets 02:51:39 0° 31° (NNE) 3,430 6.4 -26.6°
